Location: Newark
(21.1200°N, 73.4000°E)
Time: 06:04:27
(UTC+00:00)

Explorer 11/Cluster Stage 4 - Pass Details

Date: 22 January 2020
Orbit: 467 x 1259 km, 28.8° (Epoch: 19 February)

Event Time Altitude Azimuth Distance (km) Brightness Sun altitude
Rises 14:26:32 0° 292° (WNW) 3,616 10.9 -22.4°
Reaches altitude 10° 14:29:30 10° 296° (WNW) 2,531 9.8 -23.0°
Maximum altitude 14:35:22 58° 14° (NNE) 853 6.5 -24.4°
Enters shadow 14:35:28 58° 19° (NNE) 851 6.5 -24.4°
Drops below altitude 10° 14:40:01 10° 94° (E) 2,010 - -25.4°
Sets 14:42:08 0° 99° (E) 2,816 - -25.9°
